Weather History for Kirksville, MO

Change the Weather History Date:

Wednesday, April 9, 2014

  Actual Average Record
Temperature  
Mean Temperature 49 °F 50 °F  
Max Temperature 70 °F 61 °F 84 °F (2011)
Min Temperature 27 °F 39 °F 19 °F (1928)
Degree Days  
Heating Degree Days 16 15  
Month to date heating degree days 172 150  
Since 1 July heating degree days 6044 5437  
Cooling Degree Days 0 0  
Month to date cooling degree days 0 0  
Year to date cooling degree days 0 0  
Moisture  
Dew Point 28 °F    
Average Humidity 55    
Maximum Humidity 92    
Minimum Humidity 17    
Precipitation  
Precipitation 0.00 in 0.09 in 1.10 in (1942)
Month to date precipitation 0.68 0.70  
Year to date precipitation 5.30 6.05  
Sea Level Pressure  
Sea Level Pressure 30.00 in    
Wind  
Wind Speed 11 mph (SW)    
Max Wind Speed 22 mph    
Max Gust Speed 29 mph    
Visibility 10 miles    
Events      
T = Trace of Precipitation, MM = Missing Value Source: NWS Daily Summary

Daily Weather History Graph

Daily Weather History Graph

Search for Another Location

Airport:

Trip Planner

Search our weather history database for the weather conditions in past years. The results will help you decide how hot, cold, wet, or windy it might be!

Date:

Astronomy

Apr. 09, 2014 Rise Set
Actual Time 6:41 AM CDT 7:42 PM CDT
Civil Twilight 6:13 AM CDT 8:10 PM CDT
Nautical Twilight 5:40 AM CDT 8:43 PM CDT
Astronomical Twilight 5:06 AM CDT 9:18 PM CDT
Moon 2:31 PM CDT (4/9) 3:30 AM CDT (4/9)
Length of Visible Light 13h 56m
Length of Day
13h 01m
Waxing Gibbous, 72% of the Moon is Illuminated
Apr 9
Waxing Gibbous
Apr 15
Full
Apr 22
Last Quarter
Apr 29
New
May 6
First Quarter

Hourly Weather History & Observations

Time (CDT) Temp. Windchill Dew Point Humidity Pressure Visibility Wind Dir Wind Speed Gust Speed Precip Events Conditions
12:55 AM 34.0 °F 31.0 °F 25.0 °F 70% 30.09 in 10.0 mi WNW 3.5 mph - N/A   Clear
1:55 AM 30.9 °F 26.2 °F 25.0 °F 79% 30.09 in 10.0 mi West 4.6 mph - N/A   Clear
2:55 AM 28.9 °F 23.9 °F 24.1 °F 82% 30.08 in 10.0 mi WSW 4.6 mph - N/A   Clear
3:55 AM 28.0 °F 22.8 °F 24.1 °F 85% 30.08 in 10.0 mi West 4.6 mph - N/A   Clear
4:55 AM 28.0 °F 22.8 °F 25.0 °F 88% 30.09 in 10.0 mi West 4.6 mph - N/A   Clear
5:55 AM 28.0 °F 22.8 °F 24.1 °F 85% 30.10 in 10.0 mi West 4.6 mph - N/A   Clear
6:55 AM 27.0 °F 20.5 °F 24.1 °F 89% 30.11 in 10.0 mi West 5.8 mph - N/A   Clear
7:55 AM 39.0 °F 35.7 °F 30.0 °F 70% 30.13 in 10.0 mi WSW 4.6 mph - N/A   Clear
8:55 AM 48.0 °F - 33.1 °F 56% 30.13 in 10.0 mi SW 8.1 mph - N/A   Clear
9:55 AM 53.1 °F - 30.9 °F 43% 30.12 in 10.0 mi SSW 10.4 mph - N/A   Clear
10:55 AM 57.9 °F - 28.0 °F 32% 30.10 in 10.0 mi SW 8.1 mph 18.4 mph N/A   Clear
11:55 AM 61.0 °F - 23.0 °F 23% 30.07 in 10.0 mi WSW 10.4 mph 23.0 mph N/A   Clear
12:55 PM 64.9 °F - 21.0 °F 19% 30.04 in 10.0 mi SSW 13.8 mph 21.9 mph N/A   Clear
1:55 PM 68.0 °F - 21.9 °F 17% 30.00 in 10.0 mi SSW 17.3 mph 21.9 mph N/A   Clear
2:55 PM 69.1 °F - 27.0 °F 21% 29.97 in 10.0 mi SSW 15.0 mph 26.5 mph N/A   Clear
3:55 PM 69.1 °F - 28.0 °F 22% 29.93 in 10.0 mi SSW 15.0 mph 24.2 mph N/A   Clear
4:55 PM 68.0 °F - 30.0 °F 24% 29.90 in 10.0 mi South 17.3 mph 27.6 mph N/A   Clear
5:55 PM 68.0 °F - 30.9 °F 25% 29.89 in 10.0 mi South 18.4 mph 27.6 mph N/A   Clear
6:55 PM 66.9 °F - 32.0 °F 27% 29.88 in 10.0 mi SSW 13.8 mph 23.0 mph N/A   Clear
7:55 PM 62.1 °F - 33.1 °F 34% 29.87 in 10.0 mi South 10.4 mph - N/A   Clear
8:55 PM 60.1 °F - 34.0 °F 38% 29.86 in 10.0 mi South 11.5 mph - N/A   Clear
9:55 PM 59.0 °F - 33.1 °F 38% 29.85 in 10.0 mi South 12.7 mph - N/A   Clear
10:55 PM 59.0 °F - 34.0 °F 39% 29.83 in 10.0 mi South 12.7 mph - N/A   Clear
11:55 PM 60.1 °F - 35.1 °F 39% 29.81 in 10.0 mi South 15.0 mph - N/A   Clear